{"data":{"norad_id":49438,"epoch":"2026-05-24T22:15:44.459424Z","epoch_age_seconds":81227,"freshness":"FRESH","line1":"1 49438U 21104AG  26144.92759791  .00000048  00000+0  21082-4 0  9990","line2":"2 49438  53.2128 226.8116 0001296  87.3186 272.7954 15.08837187250425","mean_motion":15.08837187,"eccentricity":0.0001296,"inclination_deg":53.2128,"raan_deg":226.8116,"arg_perigee_deg":87.3186,"mean_anomaly_deg":272.7954,"bstar":2.1082e-5,"rev_number":25042,"period_min":95.437732606732,"perigee_km":538.85542878036,"apogee_km":540.64854560584,"semimajor_km":6917.8889871931,"source":"CELESTRAK","updated_at":"2026-05-25T13:38:16.801123Z"}}